EW9688 Weather Reports


Display with metric or nautical units.
time (UTC)temp
F
wind
direction
speed
MPH
gust
MPH
rain 1hr
in
rain 24hr
in
rain mn
in
humidity
%
barometer
mb
20260901103832 59 281 2.0 2.0 0.00 0.08 0.03 82 1022.8
20260901102831 59 301 2.0 2.0 0.00 0.08 0.03 82 1022.9
20260901101911 59 196 0.0 1.0 0.00 0.08 0.03 84 1022.9
20260901100831 59 267 1.0 1.0 0.00 0.08 0.03 83 1023.2
20260901095831 59 311 2.0 2.0 0.00 0.08 0.03 83 1023.2
20260901094831 60 275 1.0 1.0 0.00 0.08 0.03 82 1023.2
20260901093832 60 300 2.0 2.0 0.00 0.08 0.03 82 1023.3
20260901092832 60 261 1.0 1.0 0.00 0.08 0.03 83 1023.4
20260901091833 60 302 2.0 2.0 0.00 0.08 0.03 83 1023.4
20260901090832 60 286 2.0 2.0 0.00 0.08 0.03 83 1023.5
20260901085833 60 271 2.0 2.0 0.00 0.08 0.03 82 1023.6
20260901084834 60 259 1.0 1.0 0.00 0.08 0.03 81 1023.6
20260901083855 60 253 1.0 1.0 0.00 0.08 0.03 83 1023.7
20260901082833 60 296 1.0 1.0 0.00 0.08 0.03 82 1023.7
20260901081833 60 283 1.0 1.0 0.00 0.08 0.03 82 1023.8
20260901080833 60 252 1.0 1.0 0.01 0.08 0.03 83 1023.9
20260901075853 60 265 1.0 1.0 0.02 0.08 0.03 83 1024.0
20260901074834 60 282 1.0 1.0 0.02 0.08 0.03 84 1024.1
20260901073834 60 290 1.0 2.0 0.02 0.08 0.03 84 1024.2
20260901072834 60 315 2.0 2.0 0.02 0.08 0.03 84 1024.2
20260901071834 60 269 2.0 2.0 0.02 0.08 0.03 83 1024.3
20260901070834 61 225 1.0 2.0 0.02 0.08 0.02 82 1024.3
20260901065834 62 212 3.0 4.0 0.01 0.06 0.01 81 1024.5
20260901064835 62 213 2.0 3.0 0.00 0.06 0.00 78 1024.5
20260901063836 62 227 1.0 2.0 0.00 0.06 0.00 78 1024.2
20260901062835 62 219 2.0 2.0 0.00 0.06 0.00 78 1024.2
20260901061855 62 245 1.0 1.0 0.00 0.06 0.00 79 1024.2
20260901060830 62 332 0.0 1.0 0.00 0.06 0.00 77 1024.2
20260901055835 62 227 1.0 2.0 0.00 0.06 0.06 79 1024.2
20260901054832 62 240 1.0 1.0 0.00 0.06 0.06 79 1024.1
20260901053831 62 247 1.0 1.0 0.00 0.06 0.06 78 1023.9
20260901052836 62 208 2.0 2.0 0.00 0.06 0.06 77 1023.9
20260901051834 62 298 2.0 3.0 0.00 0.06 0.06 78 1024.2
20260901050831 62 270 1.0 1.0 0.00 0.06 0.06 78 1024.1
20260901045818 62 274 1.0 1.0 0.00 0.06 0.06 79 1024.3
20260901044816 62 279 2.0 2.0 0.00 0.06 0.06 79 1024.4
20260901043822 62 302 1.0 1.0 0.00 0.06 0.06 79 1024.4
20260901042819 62 250 1.0 2.0 0.00 0.06 0.06 79 1024.4
20260901041832 62 255 1.0 1.0 0.00 0.06 0.06 78 1024.4
20260901040837 62 266 1.0 2.0 0.00 0.06 0.06 78 1024.3
20260901035819 63 274 2.0 3.0 0.00 0.06 0.06 78 1024.2
20260901034817 62 22 3.0 3.0 0.02 0.06 0.06 77 1024.4
20260901033825 62 350 3.0 4.0 0.03 0.06 0.06 80 1023.9
20260901032820 61 316 2.0 3.0 0.04 0.06 0.06 83 1024.6
20260901031818 62 259 1.0 1.0 0.04 0.06 0.06 83 1024.5
20260901030823 62 30 1.0 2.0 0.05 0.06 0.06 83 1025.0
20260901025821 62 213 1.0 2.0 0.05 0.06 0.06 81 1025.4
20260901024819 63 168 1.0 1.0 0.04 0.04 0.04 80 1025.4
20260901023827 64 181 2.0 4.0 0.02 0.03 0.03 76 1025.4
20260901022842 64 177 1.0 1.0 0.01 0.02 0.02 76 1024.9
20260901021816 66 190 3.0 5.0 0.01 0.02 0.02 74 1024.6
20260901020842 69 220 4.0 5.0 0.00 0.01 0.01 62 1023.9
20260901015821 70 206 3.0 4.0 0.00 0.00 0.00 53 1023.4
20260901014819 69 233 2.0 3.0 0.00 0.00 0.00 54 1023.2
20260901013824 69 299 2.0 3.0 0.00 0.00 0.00 56 1023.1
20260901012819 69 264 2.0 3.0 0.00 0.00 0.00 56 1023.0
20260901011823 69 278 2.0 3.0 0.00 0.00 0.00 58 1023.2
20260901010826 68 325 2.0 2.0 0.00 0.00 0.00 59 1023.4
20260901005822 68 320 3.0 4.0 0.00 0.00 0.00 62 1023.5
20260901004817 68 288 3.0 5.0 0.00 0.00 0.00 68 1023.5
20260901003822 72 296 6.0 8.0 0.00 0.00 0.00 57 1023.3
20260901002819 75 287 5.0 8.0 0.00 0.00 0.00 45 1023.0
20260901001818 77 25 4.0 5.0 0.00 0.00 0.00 37 1022.8
20260901000826 78 20 3.0 3.0 0.00 0.00 0.00 37 1022.6
20260831235819 78 21 3.0 4.0 0.00 0.00 0.00 35 1022.5
20260831234818 78 26 4.0 5.0 0.00 0.00 0.00 35 1022.4
20260831233823 79 24 5.0 8.0 0.00 0.00 0.00 35 1022.5
20260831232832 79 29 3.0 4.0 0.00 0.00 0.00 36 1022.4
20260831231839 80 119 2.0 5.0 0.00 0.00 0.00 35 1022.4
20260831230823 79 20 2.0 4.0 0.00 0.00 0.00 35 1022.4
20260831225833 79 44 3.0 5.0 0.00 0.00 0.00 35 1022.6
20260831224819 79 15 3.0 4.0 0.00 0.00 0.00 37 1022.6
20260831223826 80 17 3.0 5.0 0.00 0.00 0.00 36 1022.7
20260831222842 79 23 3.0 5.0 0.00 0.00 0.00 37 1022.7
20260831221819 78 52 2.0 3.0 0.00 0.00 0.00 36 1022.8
20260831220828 78 52 1.0 2.0 0.00 0.00 0.00 37 1022.9
20260831215821 78 97 1.0 2.0 0.00 0.00 0.00 37 1022.9
20260831214824 78 205 2.0 2.0 0.00 0.00 0.00 37 1022.9
20260831213824 78 23 3.0 5.0 0.00 0.00 0.00 37 1023.0
20260831212822 78 146 4.0 5.0 0.00 0.00 0.00 39 1023.1
20260831211845 78 99 2.0 3.0 0.00 0.00 0.00 37 1023.2
20260831210845 78 54 5.0 6.0 0.00 0.01 0.00 37 1023.3
20260831205843 77 149 2.0 2.0 0.00 0.01 0.00 37 1023.4
20260831204824 77 181 1.0 2.0 0.00 0.01 0.00 39 1023.5
20260831203845 77 25 3.0 4.0 0.00 0.01 0.00 39 1023.6
20260831202823 77 125 5.0 6.0 0.00 0.04 0.00 38 1023.7
20260831201845 76 107 2.0 3.0 0.00 0.08 0.00 39 1023.8
20260831200826 76 58 2.0 4.0 0.00 0.08 0.00 38 1023.9
20260831195843 76 189 2.0 3.0 0.00 0.09 0.00 38 1024.0
20260831194824 76 152 2.0 4.0 0.00 0.09 0.00 39 1024.0
20260831193827 77 148 2.0 4.0 0.00 0.09 0.00 38 1024.1
20260831192823 76 189 3.0 5.0 0.00 0.09 0.00 38 1024.2
20260831191825 76 148 3.0 4.0 0.00 0.09 0.00 39 1024.3
20260831190830 76 25 3.0 8.0 0.00 0.09 0.00 39 1024.4
20260831185826 75 172 3.0 5.0 0.00 0.09 0.00 40 1024.7
20260831184821 75 176 3.0 4.0 0.00 0.09 0.00 39 1024.7
20260831183817 74 184 2.0 3.0 0.00 0.09 0.00 40 1024.7
20260831182826 75 147 3.0 4.0 0.00 0.09 0.00 41 1024.7
20260831181818 75 84 4.0 8.0 0.00 0.09 0.00 39 1024.7
20260831180826 75 152 1.0 2.0 0.00 0.09 0.00 38 1024.7
20260831175827 74 10 5.0 7.0 0.00 0.09 0.00 39 1024.9
20260831174818 74 4 6.0 7.0 0.00 0.09 0.00 39 1024.9
20260831173829 73 113 3.0 4.0 0.00 0.09 0.00 40 1025.0
20260831172818 73 104 3.0 5.0 0.00 0.09 0.00 42 1025.0
20260831171818 73 114 1.0 2.0 0.00 0.09 0.00 42 1024.9
20260831170818 73 186 2.0 3.0 0.00 0.09 0.00 41 1025.0
20260831165821 73 111 2.0 3.0 0.00 0.09 0.00 41 1025.0
20260831164840 73 124 3.0 4.0 0.00 0.09 0.00 41 1025.0
20260831163838 73 29 3.0 8.0 0.00 0.09 0.00 42 1024.9
20260831162819 73 53 3.0 5.0 0.00 0.09 0.00 44 1024.8
20260831161848 73 182 2.0 4.0 0.00 0.09 0.00 44 1024.7
20260831160828 73 193 2.0 3.0 0.00 0.09 0.00 42 1024.6
20260831155832 73 181 4.0 4.0 0.00 0.09 0.00 42 1024.6
20260831154820 73 13 4.0 5.0 0.00 0.09 0.00 41 1024.6
20260831153828 73 32 3.0 3.0 0.00 0.09 0.00 40 1024.6
20260831152833 73 45 1.0 2.0 0.00 0.09 0.00 41 1024.5
20260831151829 74 5 3.0 3.0 0.00 0.09 0.00 39 1024.5
20260831150829 73 300 1.0 2.0 0.00 0.09 0.00 41 1024.5
20260831145833 73 199 3.0 3.0 0.00 0.09 0.00 42 1024.6
20260831144850 72 12 2.0 3.0 0.00 0.09 0.00 42 1024.7
20260831143829 71 28 2.0 3.0 0.00 0.09 0.00 42 1024.7
20260831142833 70 223 1.0 2.0 0.00 0.09 0.00 46 1024.7
20260831141830 68 262 1.0 2.0 0.00 0.09 0.00 46 1024.6
20260831140830 67 240 2.0 3.0 0.00 0.09 0.00 50 1024.5
20260831135833 65 293 1.0 1.0 0.00 0.09 0.00 53 1024.4
20260831134830 64 0.0 0.0 0.00 0.09 0.00 55 1024.4
20260831133830 64 0.0 0.0 0.00 0.09 0.00 56 1024.2
20260831132834 64 206 1.0 1.0 0.00 0.09 0.00 55 1024.1
20260831131831 64 214 0.0 0.0 0.00 0.09 0.00 53 1024.0
20260831130830 64 206 0.0 0.0 0.00 0.09 0.00 52 1023.8
20260831125822 63 0.0 0.0 0.00 0.09 0.00 54 1023.7
20260831124818 63 220 1.0 1.0 0.00 0.09 0.00 53 1023.6
20260831123816 63 238 1.0 1.0 0.00 0.09 0.00 53 1023.5
20260831122836 63 255 1.0 1.0 0.00 0.09 0.00 55 1023.4
20260831121853 63 272 1.0 1.0 0.00 0.09 0.00 55 1023.5
20260831120832 63 259 1.0 2.0 0.00 0.09 0.00 55 1023.4
20260831115836 63 257 1.0 2.0 0.00 0.09 0.00 54 1023.3
20260831114817 63 222 1.0 1.0 0.00 0.09 0.00 53 1023.2
20260831113842 63 239 1.0 1.0 0.00 0.09 0.00 54 1023.3
20260831112818 63 246 1.0 2.0 0.00 0.09 0.00 55 1023.3
20260831111858 62 259 1.0 1.0 0.00 0.09 0.00 56 1023.2
20260831110821 62 247 1.0 1.0 0.00 0.09 0.00 57 1023.2
20260831105817 62 255 1.0 1.0 0.00 0.09 0.00 57 1023.2
20260831104816 62 260 1.0 1.0 0.00 0.09 0.00 56 1023.2